Probability
0 0 0 0 0 0 0 0 0 0 0 1 3 5 4 2 2 6 14 22 29 32 34 37 39 38 40 45 48 47 43 40 36 28 22 19 19 19 15 16 23 27 24 20
0 0 0 0 0 0 0 0 0 0 0 0 2 5 6 3 2 6 13 22 29 34 38 41 44 44 46 52 54 51 47 43 38 32 26 23 23 22 18 18 24 27 23 19
0 0 0 0 0 0 0 0 0 0 0 0 1 5 8 4 2 5 11 18 25 32 40 47 50 51 55 60 60 55 50 47 43 37 31 29 28 25 22 23 26 25 21 18
0 0 0 0 0 0 0 0 0 0 0 0 0 4 8 6 3 4 9 14 20 28 40 50 55 58 61 62 61 59 57 53 48 42 37 34 31 28 26 26 27 26 22 20
0 0 0 0 0 0 0 0 0 0 0 0 0 2 7 8 6 6 8 12 17 27 40 51 57 61 63 62 60 62 64 62 55 47 42 39 35 32 30 29 31 29 25 21
0 0 0 0 0 0 0 0 0 0 0 0 0 1 5 8 8 7 9 12 16 24 39 52 59 63 64 62 62 66 69 68 61 53 48 44 42 39 36 34 34 31 26 22
0 0 0 0 0 0 0 0 0 0 0 0 0 1 2 5 7 7 9 12 15 21 36 52 62 66 66 65 67 73 75 71 65 59 54 50 46 43 38 35 32 29 26 23
0 0 0 0 0 0 0 0 0 0 0 0 1 0 1 4 6 7 9 11 13 20 34 51 64 69 67 67 72 80 81 75 68 61 57 54 49 43 37 32 30 29 26 24
0 0 0 0 0 0 0 0 0 0 0 0 0 0 1 3 5 6 7 9 11 18 32 50 63 66 65 67 74 80 82 79 71 63 58 55 51 45 37 31 30 31 28 24
0 0 0 0 0 0 0 0 0 0 0 0 0 1 2 3 5 5 5 6 9 15 28 46 59 64 64 67 73 78 81 79 72 65 60 57 54 49 42 35 33 35 32 27
0 0 0 0 0 0 0 0 0 0 0 0 1 3 4 5 7 7 8 9 10 13 24 39 53 62 64 66 70 75 77 77 73 67 62 60 58 54 46 40 38 38 36 34
0 0 0 0 0 0 0 0 0 0 0 0 2 3 6 8 11 13 15 16 15 18 25 35 47 58 63 65 69 72 74 74 72 67 61 60 61 57 50 44 41 40 39 38
0 0 0 0 0 0 0 0 0 0 0 0 2 3 6 10 14 19 23 23 22 26 32 39 49 57 63 68 72 74 74 71 69 65 60 60 62 60 53 48 45 42 40 40
0 0 0 0 0 0 0 0 0 0 0 1 2 4 7 10 15 22 26 26 27 32 39 48 56 60 63 69 75 76 73 68 67 66 63 63 64 61 55 50 47 43 40 39
0 0 0 0 0 0 0 0 0 0 0 1 4 5 7 10 14 21 26 28 29 33 39 49 58 62 63 68 73 73 70 67 68 68 66 65 64 62 57 52 49 45 41 38
1 0 0 0 0 0 0 0 0 0 1 3 5 7 9 11 16 22 28 30 31 33 37 46 56 61 64 67 69 69 67 67 68 68 66 65 64 62 58 54 52 50 45 40
2 2 1 0 0 0 0 1 1 1 2 4 6 8 11 14 20 27 32 35 36 37 41 47 53 58 61 64 67 66 64 65 66 66 64 63 63 61 58 56 55 55 50 44
3 4 2 1 0 1 1 2 3 3 5 6 7 8 10 13 19 28 35 40 43 44 46 48 50 52 54 59 62 63 62 63 64 63 61 61 60 60 60 59 57 57 52 48
2 4 4 1 1 2 3 3 4 4 6 8 9 10 11 11 15 23 34 43 49 50 49 48 49 52 56 59 61 61 61 62 63 63 62 61 59 60 62 60 57 55 51 48
2 4 4 3 2 2 3 4 4 5 9 12 12 14 15 15 17 24 35 46 52 53 54 54 55 59 64 66 65 63 62 62 63 64 64 63 61 61 61 57 53 51 49 47
2 3 3 3 3 3 4 6 10 14 20 23 21 19 20 21 23 30 41 48 52 53 56 59 61 65 69 71 70 68 66 64 63 64 64 63 62 59 57 54 50 46 45 44
2 2 3 4 6 10 15 19 24 31 34 32 27 23 23 23 25 31 39 44 47 49 54 59 62 65 69 71 71 70 68 65 62 60 58 57 56 53 50 49 45 42 40 39
5 4 6 8 12 18 27 33 36 37 36 31 25 22 22 24 26 28 32 35 38 42 48 54 57 60 64 66 65 64 61 58 55 52 50 49 48 46 43 41 38 35 33 31
7 7 10 14 18 22 27 30 29 28 25 22 18 17 19 23 26 25 26 30 33 35 39 43 45 48 51 53 52 50 48 47 45 43 42 41 39 36 33 29 26 24 23 23
8 9 11 16 19 21 21 21 19 17 15 13 13 15 17 20 22 21 23 27 30 30 29 31 33 34 36 38 39 38 37 36 35 35 34 33 30 27 23 18 13 12 12 12
8 9 11 15 19 19 19 19 16 13 12 10 11 14 17 18 19 20 22 25 27 26 25 26 27 28 29 30 32 32 32 32 31 30 30 28 26 23 19 13 8 6 6 5
Wind_Speed
11 12 14 15 17 17 14 13 13 10 11 10 9 9 11 12 12 13 14 15 15 14 15 15 14 14 13 12 11 10 8 7 6 5 5 4 4 3 3 4 5 5 4 4
12 16 17 16 15 16 16 15 13 8 9 8 7 9 10 9 11 12 13 14 16 15 15 15 14 14 14 13 12 10 9 9 8 5 4 4 4 4 3 3 4 5 4 4
18 12 15 16 14 13 15 15 13 10 8 9 9 11 11 12 12 12 13 13 15 17 16 16 16 15 15 14 14 12 11 10 9 8 5 4 3 2 3 4 4 4 5 4
17 15 10 13 14 14 14 14 13 11 9 8 11 9 11 12 12 12 13 13 13 15 17 17 17 16 15 15 14 11 11 10 9 8 7 7 6 5 5 4 4 4 5 4
13 14 13 14 14 14 14 11 11 12 11 11 12 12 9 11 11 13 13 13 13 15 17 18 17 16 15 15 14 12 11 10 10 9 8 7 6 5 4 4 5 4 4 4
14 12 12 13 13 12 11 10 9 11 11 14 13 12 9 9 13 14 14 13 12 13 15 16 16 14 14 14 14 14 12 11 10 10 9 8 7 5 5 4 5 5 4 4
15 14 13 12 13 13 13 11 8 10 10 12 13 13 9 7 10 10 10 10 11 11 12 14 16 16 14 14 14 13 13 12 11 11 9 9 7 6 6 5 5 5 4 4
15 15 15 13 15 13 15 15 11 9 10 10 13 13 9 7 7 7 7 7 9 10 10 13 16 15 15 15 13 13 14 13 12 11 10 8 8 6 5 6 5 4 3 3
11 13 15 14 14 15 16 16 16 12 13 10 10 11 8 7 7 7 7 6 6 9 10 12 15 15 14 14 14 14 13 13 12 11 10 9 8 7 6 5 5 4 3 4
8 8 13 14 12 16 15 14 11 11 10 11 10 11 10 11 9 7 7 7 6 6 8 9 10 12 12 11 12 12 12 12 11 10 9 9 8 8 6 5 5 4 4 3
11 9 11 13 14 15 15 15 12 10 11 11 8 4 3 8 9 9 8 7 6 5 6 7 7 8 10 11 12 11 11 11 11 10 9 7 8 8 7 5 5 5 4 4
11 8 9 12 13 13 14 14 13 10 9 10 9 3 4 5 5 6 6 5 5 3 4 6 7 7 8 9 10 10 10 10 10 9 8 7 6 7 7 6 5 5 5 4
6 7 9 10 12 13 14 14 14 12 9 9 9 4 3 4 5 4 6 6 5 4 3 4 5 5 6 7 8 9 9 9 9 9 9 7 6 6 6 5 5 5 5 4
5 8 10 9 7 10 13 14 14 14 10 10 9 6 5 5 6 4 5 6 5 4 4 4 3 4 5 5 6 8 8 8 8 8 8 7 7 6 5 5 4 4 4 4
7 9 11 10 8 10 12 14 15 15 14 11 8 9 7 4 4 4 5 5 4 4 4 4 3 4 4 5 5 6 7 7 7 7 7 6 6 6 5 5 4 4 4 4
7 7 10 11 10 9 12 14 15 15 15 12 9 6 4 4 4 4 4 4 3 3 3 4 4 4 4 4 5 5 6 6 6 6 6 6 5 5 5 5 5 4 3 3
7 7 9 10 9 10 12 12 12 11 11 11 9 5 2 3 3 4 4 3 3 3 3 4 4 4 3 3 4 5 6 6 6 6 6 6 6 5 5 6 5 4 4 3
6 6 6 8 8 11 8 8 9 10 9 6 4 4 3 3 3 5 4 4 4 4 4 3 3 3 2 3 4 5 6 6 6 6 6 6 5 5 4 4 4 4 3 3
6 6 7 7 8 9 7 6 6 6 5 4 5 4 4 4 4 5 6 6 5 4 4 2 2 2 2 2 3 5 6 7 6 6 5 5 5 4 4 4 4 3 3 3
9 7 7 8 8 7 5 3 4 4 4 2 3 2 1 2 2 3 5 6 5 5 4 3 3 4 4 2 2 4 5 5 5 5 5 5 4 4 4 4 3 3 3 3
12 11 11 11 10 5 2 3 3 5 2 3 2 2 2 2 4 5 6 6 6 5 5 4 4 4 4 3 3 4 4 3 3 4 4 4 4 4 4 4 4 4 4 4
10 10 11 10 10 5 1 1 1 4 5 5 4 4 5 5 6 6 6 6 6 5 5 5 4 5 4 4 4 4 4 3 4 4 4 4 4 4 4 4 4 4 4 4
7 4 3 2 1 4 7 7 6 5 6 6 5 5 4 5 5 5 5 5 5 5 6 5 5 5 5 5 5 5 4 4 4 4 4 5 5 4 5 5 4 3 3 3
3 2 2 1 3 4 6 6 6 6 6 5 4 3 3 4 5 5 5 5 4 4 5 5 6 5 6 6 5 4 4 4 5 5 5 6 6 7 7 6 5 4 3 3
2 2 3 3 2 2 3 4 5 5 4 4 4 3 4 4 4 4 4 4 4 4 4 5 5 5 6 5 5 4 4 4 5 6 6 6 6 7 8 8 8 7 6 4
3 1 3 3 1 1 1 2 2 2 3 4 5 5 5 5 5 5 4 4 4 4 5 5 6 6 6 5 5 5 4 3 5 5 5 5 5 6 7 8 9 14 11 13
Wind_Direction
207 222 226 223 224 241 251 250 245 223 175 198 207 188 183 193 189 181 174 173 171 173 174 170 168 167 163 161 162 166 171 162 164 170 179 185 185 184 172 166 156 161 171 171
210 225 234 239 234 239 251 256 256 232 175 193 216 208 200 198 209 188 182 179 172 172 174 171 171 171 169 167 168 170 174 172 179 177 184 185 181 183 178 158 156 172 172 178
222 224 221 234 236 236 244 248 251 242 206 205 224 222 211 201 213 201 190 183 177 174 174 175 177 177 175 174 175 179 180 175 184 177 181 188 170 188 171 167 171 185 183 191
231 235 223 224 230 231 239 244 254 252 232 228 228 231 210 202 204 207 193 189 183 178 176 179 181 181 181 178 178 178 176 176 181 183 187 186 182 194 190 178 173 184 189 193
223 226 222 226 229 229 240 246 250 255 247 246 236 241 231 194 201 215 197 190 191 182 179 180 183 181 183 181 178 178 175 177 179 189 194 196 196 194 180 173 168 181 189 202
239 224 222 228 231 230 236 239 242 252 249 239 240 244 237 208 195 208 200 190 190 184 180 175 178 175 181 181 180 177 175 178 180 190 194 199 207 196 185 183 175 189 190 203
228 226 214 224 225 214 223 221 213 220 228 237 235 237 237 206 187 204 197 188 183 183 178 170 171 175 178 181 179 173 172 179 184 191 196 197 206 202 194 198 196 201 202 202
211 216 207 211 224 211 213 220 223 222 224 230 226 228 229 194 179 180 176 188 183 178 182 174 172 173 178 181 177 174 172 179 186 193 195 196 196 203 207 209 212 207 217 211
215 218 197 202 218 226 212 221 233 248 264 257 230 211 200 181 186 176 171 186 195 182 176 178 173 173 177 179 179 180 173 178 185 192 191 194 195 203 210 201 208 212 213 213
250 230 200 191 210 228 232 219 230 244 257 262 248 214 199 176 178 180 182 183 191 178 170 170 168 167 169 175 177 176 174 177 183 188 191 194 196 202 207 207 206 211 212 221
240 236 209 191 204 216 221 227 231 238 246 253 255 254 191 162 171 183 187 173 167 167 160 151 153 163 165 170 172 172 173 174 179 187 191 194 189 194 200 205 206 209 209 216
235 242 228 207 203 224 224 227 226 233 239 255 263 246 51 110 145 170 158 135 129 139 135 142 147 159 164 165 167 167 172 176 178 182 184 193 190 188 195 200 205 208 202 205
233 246 234 213 203 212 232 226 232 233 243 246 246 213 116 103 114 126 125 119 113 100 90 104 121 139 148 155 157 162 168 171 174 176 183 186 191 188 191 195 196 199 199 202
250 244 250 234 211 207 224 231 229 228 232 234 234 210 167 161 143 133 122 117 122 110 92 91 94 111 126 134 145 154 161 166 168 171 179 180 185 185 185 188 183 186 189 191
237 238 251 262 251 222 222 230 229 227 232 237 221 213 183 173 135 127 117 107 111 103 97 105 110 108 121 131 139 148 154 160 162 163 170 172 175 175 180 183 183 174 175 182
231 261 253 249 241 236 226 227 229 227 227 229 227 223 168 159 143 116 102 102 85 91 100 115 110 104 120 132 145 147 146 144 146 156 162 158 164 172 174 175 173 164 165 168
214 247 257 251 238 236 232 228 229 234 230 230 227 213 164 136 108 96 82 85 83 71 74 91 116 119 128 142 137 145 140 137 144 154 158 158 163 173 174 173 164 162 163 163
230 248 259 254 240 234 235 233 235 234 227 231 209 172 156 118 88 70 65 61 53 56 72 69 95 111 130 144 143 141 139 142 148 152 154 156 162 168 160 158 156 153 151 153
219 235 256 257 239 241 233 221 225 223 216 201 192 165 144 157 139 79 54 54 39 41 67 71 90 101 88 102 132 139 141 145 147 149 149 149 155 155 152 158 156 149 148 147
208 217 240 250 245 240 237 238 247 208 202 150 142 137 148 195 193 79 56 65 52 40 49 50 63 81 79 69 88 123 138 138 144 148 145 144 144 144 147 149 146 140 135 130
203 207 226 244 250 249 267 239 257 232 161 92 102 130 108 46 65 73 51 50 49 47 51 57 66 73 64 69 95 113 114 117 124 125 129 133 134 141 141 135 135 132 128 121
206 210 216 235 244 237 11 232 78 76 72 73 58 64 80 82 87 80 64 55 37 38 48 56 72 73 61 57 81 94 91 92 102 110 115 121 121 130 133 121 119 118 119 119
215 225 234 230 194 71 55 64 75 85 84 75 62 50 54 80 83 88 81 65 45 35 42 50 66 74 65 56 66 82 82 90 98 101 100 97 96 89 92 101 106 110 116 115
203 238 245 173 128 92 91 87 79 67 75 72 60 44 39 79 77 71 77 75 66 47 53 58 67 63 63 56 59 69 81 92 94 94 90 86 85 80 70 64 63 65 58 81
298 226 226 229 177 80 84 84 81 80 82 81 71 51 55 88 86 79 70 74 68 55 60 62 73 73 66 63 60 60 64 87 97 95 93 92 93 90 78 67 52 60 50 39
308 297 240 233 219 221 145 110 101 92 86 77 71 62 62 80 86 82 79 78 73 62 61 69 70 68 64 62 60 56 58 77 102 107 105 106 104 102 102 100 82 57 63 61